[[{"header":{"parameterUnit":"m.s-1","parameterCategory":1,"la1":30.2991,"la2":30.254,"lo1":-89.0895,"lo2":-89.0444,"dx":0.0017,"dy":0.0017,"nx":28,"ny":28,"refTime":"2022-11-17T15:00:00:Z","depth":0,"parameterNumber":2,"parameterNumberName":"U-component_of_WINDS"},"data":[0,0,0,0,0,0,0,0,0,0,0,0,0,0,0,0,0,0,0,0,0,0,0,0,0,0,0,0,0,0,0,0,0,0,0,0,0,0,0,0,0,0,0,0,0,0,0,0,0,0,0,0,0,0,0,0,0,0,0.4698,0.4697,0,0.4676,0.4675,0.4675,0.4677,0.4677,0.4677,0.4678,0.4654,0.4653,0.4652,0,0,0,0,0,0,0,0,0,0,0,0,0,0.474,0.4739,0.4698,0.4697,0.4697,0.4676,0.4675,0.4675,0.4677,0.4677,0.4677,0.4678,0.4654,0.4653,0.4652,0,0,0,0,0,0,0,0,0,0,0,0,0,0.472,0.4739,0.4698,0.4695,0.4695,0.4676,0.4675,0.4675,0.4676,0.4677,0.4677,0.4678,0.4654,0.4653,0.4651,0.4633,0,0,0.4647,0.4646,0,0,0,0,0,0,0,0,0.4721,0.4719,0.4696,0.4695,0.4695,0.4679,0.4682,0.4661,0.4676,0.4683,0.4678,0.4678,0.4662,0.466,0.4654,0.4632,0.4631,0.4647,0.4646,0.4646,0.4645,0,0,0,0,0,0,0,0.4723,0.472,0.4689,0.4696,0.4695,0.4695,0.4693,0.4678,0.467,0.4683,0.4683,0.468,0.4661,0.4656,0.4654,0.463,0.4647,0.4646,0.4645,0.4644,0.4592,0.4592,0,0,0,0,0,0,0.4725,0.4721,0.469,0.4688,0.471,0.4694,0.4691,0.4684,0.467,0.4669,0.468,0.4681,0.4658,0.4656,0.4653,0.4631,0.4646,0.4644,0.4643,0.4593,0.4592,0.4592,0,0,0,0,0,0,0.4726,0.4722,0.4691,0.4705,0.4701,0.4693,0.4684,0.4683,0.4678,0.4668,0.4667,0.4676,0.4658,0.4655,0.4638,0.463,0.4644,0.4642,0.4593,0.4593,0.4592,0.4586,0,0,0,0,0,0,0.4727,0.4722,0.4715,0.4704,0.47,0.4676,0.4684,0.4682,0.4675,0.4676,0.4664,0.4662,0.4658,0.464,0.4637,0.4628,0.4641,0.4594,0.4593,0.4592,0.4587,0.4585,0.4583,0,0,0,0,0,0.4729,0.4714,0.4715,0.4711,0.4691,0.4676,0.4673,0.467,0.4675,0.4667,0.4662,0.4662,0.4632,0.4639,0.4635,0.4625,0.4595,0.4593,0.4592,0.4588,0.4585,0.4584,0,0,0,0,0,0,0.4723,0.4712,0.4713,0.4695,0.4686,0.4676,0.4667,0.4667,0.4657,0.4657,0.4653,0.4651,0.4634,0.4628,0.4636,0.4607,0.4614,0.4612,0.4612,0.4609,0.4608,0.4609,0.464,0,0,0,0,0,0.472,0.4709,0.47,0.4685,0.468,0.4674,0.4668,0.4666,0.4657,0.4653,0.4645,0.4636,0.4624,0.4617,0.4605,0.4586,0.4584,0.4578,0.4577,0.4575,0.4573,0.4563,0.4561,0.4588,0.4588,0.4588,0,0,0.4713,0.4706,0.4699,0.4683,0.4676,0.4665,0.4671,0.4658,0.465,0.4651,0.4634,0.4629,0.4618,0.4601,0.4592,0.4595,0.4566,0.4574,0.4573,0.4571,0.4562,0.4559,0.4557,0.4587,0.4587,0.4587,0,0,0.4694,0.4688,0.4674,0.4668,0.4658,0.4654,0.4651,0.4641,0.4637,0.4621,0.4622,0.4612,0.4591,0.4584,0.4578,0.4558,0.4558,0.4554,0.4545,0.4536,0.4533,0.4532,0.4525,0.4522,0.4552,0.4552,0.4552,0,0.4686,0.4669,0.4667,0.4655,0.4648,0.465,0.4636,0.463,0.4616,0.4611,0.4615,0.4591,0.4583,0.4564,0.4559,0.4554,0.455,0.4555,0.4534,0.4532,0.453,0.4524,0.4521,0.4552,0.4552,0.4552,0.4552,0,0.4661,0.4649,0.4639,0.4627,0.462,0.4607,0.4602,0.4595,0.4594,0.459,0.4574,0.4566,0.4554,0.4549,0.4548,0.453,0.4532,0.4535,0.4541,0.4527,0.4521,0.4518,0.4551,0.4552,0.4552,0.4552,0,0,0.4636,0.4625,0.4621,0.4616,0.4605,0.4596,0.4584,0.4572,0.4566,0.4557,0.4546,0.453,0.4533,0.4526,0.4524,0.4516,0.4501,0.452,0.4519,0.4516,0.4481,0.4478,0.4475,0.4501,0.4501,0.4501,0.4482,0,0.4617,0.4595,0.4593,0.4573,0.4562,0.4564,0.4553,0.4546,0.4542,0.4533,0.4528,0.4517,0.4522,0.4517,0.4509,0.4504,0.4493,0.4506,0.4491,0.4491,0.4493,0.4472,0.4469,0.4451,0.4479,0.4479,0.4478,0,0.459,0.4581,0.4561,0.4553,0.4548,0.4538,0.4528,0.4519,0.4511,0.4509,0.4501,0.4501,0.4488,0.4496,0.4478,0.4487,0.4481,0.4478,0.4477,0.4475,0.4483,0.4469,0.4446,0.4443,0.4474,0.4475,0.4475,0,0.4575,0.4558,0.4543,0.4539,0.4529,0.4522,0.4518,0.451,0.4504,0.4495,0.449,0.448,0.4474,0.4466,0.4463,0.4469,0.4446,0.4453,0.4443,0.4444,0.4438,0.4438,0.4413,0.4435,0.4435,0.4435,0.4435,0,0.4552,0.4539,0.4536,0.4527,0.4513,0.4512,0.4498,0.4494,0.4487,0.4478,0.4479,0.4469,0.4466,0.4457,0.4454,0.444,0.4438,0.4436,0.4435,0.4435,0.4436,0.4431,0.4432,0.4434,0.4434,0.4434,0.4435,0,0.4532,0.4529,0.4514,0.4506,0.4504,0.4494,0.4488,0.4479,0.4477,0.4464,0.4461,0.4457,0.4446,0.4442,0.4429,0.4427,0.4411,0.4411,0.4414,0.4413,0.4404,0.4405,0.4375,0.4371,0.4396,0.4395,0.4395,0,0.4518,0.4508,0.45,0.4494,0.449,0.448,0.4473,0.4472,0.4465,0.4456,0.4448,0.4438,0.4429,0.4411,0.4406,0.4396,0.4397,0.4387,0.4395,0.4396,0.4396,0.4397,0.4396,0.4385,0.4385,0.4384,0.4384,0,0.4492,0.4492,0.4483,0.4474,0.4466,0.4459,0.4452,0.4447,0.4444,0.4437,0.4426,0.4419,0.4406,0.4395,0.4386,0.4381,0.4382,0.4382,0.4379,0.4379,0.4381,0.438,0.4409,0.4382,0.4382,0.4383,0.4383,0.4383,0.4474,0.4466,0.446,0.445,0.4445,0.4438,0.443,0.4427,0.4418,0.4407,0.4407,0.4395,0.4388,0.4375,0.437,0.4361,0.4364,0.436,0.4359,0.4358,0.4357,0.4383,0.4359,0.4359,0.4359,0.4359,0.4359,0,0.4449,0.4445,0.4437,0.4427,0.442,0.4422,0.4415,0.4408,0.4398,0.4392,0.4384,0.4371,0.4362,0.4357,0.4347,0.434,0.4341,0.4338,0.4338,0.4337,0.4355,0.4358,0.4338,0.4338,0.4338,0.4338,0.4338,0.4338,0.4435,0.4422,0.4421,0.4405,0.4401,0.439,0.4385,0.438,0.4375,0.4361,0.4353,0.435,0.4345,0.4335,0.4326,0.4325,0.4321,0.4318,0.4317,0.4333,0.4336,0.4338,0.4341,0.4317,0.4317,0.4299,0.4299,0.4299]},{"header":{"parameterUnit":"m.s-1","parameterCategory":1,"la1":30.2991,"la2":30.254,"lo1":-89.0895,"lo2":-89.0444,"dx":0.0017,"dy":0.0017,"nx":28,"ny":28,"refTime":"2022-11-17T15:00:00:Z","depth":0,"parameterNumber":3,"parameterNumberName":"V-component_of_WINDS"},"data":[0,0,0,0,0,0,0,0,0,0,0,0,0,0,0,0,0,0,0,0,0,0,0,0,0,0,0,0,0,0,0,0,0,0,0,0,0,0,0,0,0,0,0,0,0,0,0,0,0,0,0,0,0,0,0,0,0,0,-5.7745,-5.7747,0,-5.7855,-5.7856,-5.7857,-5.7796,-5.7793,-5.779,-5.7787,-5.7894,-5.7899,-5.7905,0,0,0,0,0,0,0,0,0,0,0,0,0,-5.7478,-5.7483,-5.7745,-5.7747,-5.7748,-5.7854,-5.7856,-5.7857,-5.7796,-5.7793,-5.7789,-5.7786,-5.7892,-5.7898,-5.7905,0,0,0,0,0,0,0,0,0,0,0,0,0,-5.7591,-5.7485,-5.7745,-5.7731,-5.773,-5.7854,-5.7856,-5.7858,-5.7797,-5.7793,-5.7788,-5.7784,-5.7889,-5.7898,-5.7906,-5.8049,0,0,-5.7932,-5.7936,0,0,0,0,0,0,0,0,-5.7585,-5.7601,-5.7731,-5.7732,-5.7732,-5.7807,-5.78,-5.7921,-5.7798,-5.7772,-5.7787,-5.7782,-5.7868,-5.7878,-5.7908,-5.8054,-5.8058,-5.7933,-5.7938,-5.7941,-5.7944,0,0,0,0,0,0,0,-5.7577,-5.7596,-5.7788,-5.7733,-5.7734,-5.7716,-5.7728,-5.7823,-5.7844,-5.7774,-5.7769,-5.7783,-5.7867,-5.79,-5.791,-5.806,-5.7932,-5.794,-5.7945,-5.7948,-5.8324,-5.8329,0,0,0,0,0,0,-5.7571,-5.759,-5.7785,-5.7792,-5.7646,-5.7725,-5.7737,-5.7787,-5.7842,-5.7847,-5.7787,-5.778,-5.7888,-5.79,-5.7914,-5.8082,-5.7941,-5.7949,-5.7954,-5.8319,-5.8325,-5.8331,0,0,0,0,0,0,-5.7565,-5.7589,-5.778,-5.769,-5.7713,-5.7734,-5.7791,-5.7792,-5.7825,-5.7853,-5.7856,-5.7818,-5.7885,-5.7902,-5.8015,-5.8085,-5.7953,-5.7961,-5.8314,-5.8321,-5.8328,-5.8422,0,0,0,0,0,0,-5.7558,-5.7587,-5.7643,-5.7691,-5.7718,-5.7882,-5.7795,-5.7797,-5.784,-5.7832,-5.7882,-5.7886,-5.7883,-5.8003,-5.8024,-5.8094,-5.7967,-5.8307,-5.8317,-5.8326,-5.8412,-5.8431,-5.8448,0,0,0,0,0,-5.7549,-5.7665,-5.7646,-5.767,-5.7789,-5.7887,-5.7901,-5.7897,-5.7846,-5.7901,-5.7919,-5.7884,-5.8075,-5.8015,-5.8038,-5.8112,-5.8303,-5.8314,-5.8325,-5.8405,-5.8428,-5.8447,0,0,0,0,0,0,-5.7622,-5.7671,-5.7651,-5.7787,-5.7833,-5.7876,-5.7946,-5.7922,-5.7982,-5.7972,-5.7962,-5.7974,-5.8092,-5.8113,-5.8046,-5.8252,-5.818,-5.8197,-5.8233,-5.8255,-5.8273,-5.8264,-5.7974,0,0,0,0,0,-5.7655,-5.7732,-5.7769,-5.7885,-5.791,-5.7924,-5.7966,-5.7959,-5.8006,-5.8025,-5.8051,-5.8096,-5.8166,-5.8212,-5.8278,-5.8416,-5.8424,-5.8478,-5.8495,-5.851,-5.8523,-5.8595,-5.8618,-5.8367,-5.8367,-5.8367,0,0,-5.7722,-5.7758,-5.7807,-5.7901,-5.7936,-5.8014,-5.7941,-5.8027,-5.8084,-5.8037,-5.8146,-5.8167,-5.8216,-5.8342,-5.8399,-5.8364,-5.8595,-5.8524,-5.8535,-5.8541,-5.8609,-5.8632,-5.8654,-5.8375,-5.8373,-5.8372,0,0,-5.7884,-5.792,-5.8019,-5.8056,-5.8111,-5.8119,-5.8143,-5.819,-5.8202,-5.8312,-5.8277,-5.8344,-5.8465,-5.8502,-5.8536,-5.871,-5.8679,-5.8732,-5.8823,-5.8893,-5.8913,-5.893,-5.899,-5.9012,-5.8746,-5.8746,-5.8746,0,-5.796,-5.8078,-5.8073,-5.8162,-5.8203,-5.8166,-5.8265,-5.83,-5.8373,-5.8401,-5.8362,-5.8512,-5.8543,-5.8675,-5.8718,-5.8747,-5.8772,-5.8725,-5.8911,-5.8928,-5.8944,-5.9001,-5.9024,-5.8752,-5.8751,-5.875,-5.875,0,-5.8167,-5.825,-5.8323,-5.8396,-5.8445,-5.8539,-5.8546,-5.8596,-5.8584,-5.8596,-5.8706,-5.8742,-5.8814,-5.8845,-5.8834,-5.8975,-5.8952,-5.8912,-5.884,-5.8974,-5.9028,-5.905,-5.876,-5.8758,-5.8756,-5.8755,0,0,-5.8378,-5.8447,-5.8474,-5.8505,-5.8562,-5.8625,-5.8715,-5.8787,-5.8829,-5.888,-5.8954,-5.9057,-5.902,-5.9059,-5.9052,-5.9114,-5.9247,-5.9066,-5.9067,-5.9096,-5.9402,-5.943,-5.9456,-5.9227,-5.9231,-5.9235,-5.9397,0,-5.8542,-5.8703,-5.87,-5.8848,-5.8922,-5.8888,-5.8966,-5.9009,-5.9022,-5.9085,-5.9099,-5.9172,-5.9119,-5.9142,-5.9202,-5.9218,-5.9307,-5.9206,-5.9293,-5.9296,-5.928,-5.9484,-5.9514,-5.9666,-5.9418,-5.9421,-5.9424,0,-5.8755,-5.8814,-5.897,-5.9014,-5.9045,-5.9117,-5.918,-5.9243,-5.9289,-5.9294,-5.9337,-5.932,-5.9409,-5.9336,-5.9457,-5.9389,-5.9424,-5.9437,-5.9443,-5.9449,-5.9367,-5.9493,-5.9714,-5.9736,-5.9457,-5.9454,-5.9452,0,-5.889,-5.9009,-5.9117,-5.9145,-5.9201,-5.9251,-5.9276,-5.9318,-5.936,-5.9416,-5.9443,-5.9508,-5.9543,-5.9592,-5.9592,-5.9539,-5.9714,-5.9641,-5.9718,-5.9718,-5.9755,-5.9753,-5.9982,-5.9782,-5.9781,-5.9781,-5.9781,0,-5.9072,-5.9168,-5.9178,-5.9245,-5.935,-5.9346,-5.945,-5.9469,-5.9507,-5.9574,-5.9548,-5.9612,-5.9608,-5.9672,-5.9672,-5.9771,-5.9787,-5.9792,-5.979,-5.9793,-5.9793,-5.9815,-5.9804,-5.9787,-5.9786,-5.9785,-5.9783,0,-5.9241,-5.9252,-5.9367,-5.941,-5.9423,-5.9499,-5.9534,-5.9596,-5.9607,-5.9693,-5.9712,-5.9729,-5.9803,-5.9807,-5.9892,-5.9892,-6.0011,-5.9999,-5.9996,-5.9993,-6.0069,-6.0061,-6.032,-6.0353,-6.0133,-6.0135,-6.0137,0,-5.9356,-5.9429,-5.948,-5.9524,-5.9552,-5.9624,-5.9667,-5.9665,-5.9711,-5.9768,-5.9822,-5.9894,-5.995,-6.0069,-6.0087,-6.0151,-6.0139,-6.0225,-6.0148,-6.0148,-6.0137,-6.0132,-6.0138,-6.0239,-6.0242,-6.0244,-6.0245,0,-5.9557,-5.9559,-5.9623,-5.969,-5.9743,-5.9794,-5.9842,-5.9879,-5.9882,-5.9935,-6.001,-6.0055,-6.0141,-6.0211,-6.0273,-6.0296,-6.0271,-6.027,-6.029,-6.0293,-6.0288,-6.0289,-6.0035,-6.0263,-6.0262,-6.026,-6.0259,-6.0259,-5.9701,-5.9764,-5.9809,-5.9881,-5.9917,-5.9963,-6.0022,-6.0041,-6.0104,-6.0176,-6.017,-6.0253,-6.0295,-6.0376,-6.0404,-6.0467,-6.0438,-6.0468,-6.0476,-6.0483,-6.049,-6.028,-6.0479,-6.0478,-6.0478,-6.0477,-6.0477,0,-5.9899,-5.9927,-5.9993,-6.0062,-6.0118,-6.0091,-6.0142,-6.019,-6.0264,-6.0307,-6.0363,-6.0449,-6.0516,-6.054,-6.0605,-6.0651,-6.0641,-6.0668,-6.0663,-6.0668,-6.0514,-6.0488,-6.0675,-6.0675,-6.0675,-6.0675,-6.0675,-6.0675,-6.0009,-6.0112,-6.0119,-6.024,-6.0266,-6.0348,-6.038,-6.042,-6.0454,-6.0551,-6.0608,-6.0623,-6.0657,-6.0724,-6.0784,-6.0789,-6.0813,-6.0845,-6.0845,-6.07,-6.068,-6.0661,-6.0636,-6.0851,-6.0851,-6.0994,-6.0995,-6.0996]}]]